{"data":{"norad_id":60195,"epoch":"2026-09-20T06:11:49.909920Z","epoch_age_seconds":202363,"freshness":"STALE","line1":"1 60195U 24124N   26263.25821655 -.00001139  00000+0 -45444-5 0  9998","line2":"2 60195  53.1583 282.0716 0001027  76.2915 283.8217 15.69701396127091","mean_motion":15.69701396,"eccentricity":0.0001027,"inclination_deg":53.1583,"raan_deg":282.0716,"arg_perigee_deg":76.2915,"mean_anomaly_deg":283.8217,"bstar":-4.5444e-6,"rev_number":12709,"period_min":91.737193052735,"perigee_km":359.05939075102,"apogee_km":360.4433530226,"semimajor_km":6737.8883718868,"source":"CELESTRAK","updated_at":"2026-09-22T09:00:49.184128Z"}}